Location: Wald
(31.7579°N, 86.6655°W)
Time: 11:56:29
(UTC+00:00)

Cosmos-2242 - Pass Details

Date: 14 July 2020
Orbit: 592 x 616 km, 82.5° (Epoch: 08 August)

Event Time Altitude Azimuth Distance (km) Brightness Sun altitude
Rises 01:46:06 0° 359° (N) 2,880 7.0 -10.5°
Reaches altitude 10° 01:48:22 10° 4° (N) 1,974 6.1 -10.9°
Maximum altitude 01:52:39 54° 82° (E) 752 3.2 -11.6°
Enters shadow 01:56:25 13° 158° (SSE) 1,774 4.9 -12.3°
